Цуриб

Россия / Республика Дагестан     42°14′24″N   46°50′01″E
темп.,
°C
ветер,
м/с
пор.,
м/с
влажн.,
%
обл.,
%
осадки,
мм/ч
давл.,
гПа
погр.,
м
16 октября, сб
сб1600:00+6юз43564 0.0 102134
03:00+6юз43565 0.0 102030
06:00+6ююз435687 0.0 102027
09:00+12юз124212 0.0 1017507
12:00+14ссв13375 0.0 10141675
15:00+14з02425 0.0 1013871
18:00+9юз43630 0.1 101640
21:00+7юз54640 0.1 101659
17 октября, вс
вс1700:00+7юз556127 0.0 101556
03:00+6юз55654 0.0 101554
06:00+6юз43630 0.0 101535
09:00+12с11460 0.0 1013571
12:00+13ссв334647 0.0 10111273
15:00+12св22495 0.4 10101026
18:00+8ююз22696 0.9 101317
21:00+7юз226099 1.6 101317
18 октября, пн
пн1800:00+5з117099 0.6 101310
03:00+4зсз0181100 0.9 101428
06:00+4вюв008120 0.1 101418
09:00+6св218585 0.2 1014441
12:00+7св328052 2.1 1013389
15:00+7св3280100 4.4 1012323
18:00+5св2298100 1.4 1015132
21:00+4с119276 2.3 1016196
19 октября, вт
вт1900:00+3ссз119481 0.4 1016184
03:00+3ююв019469 0.9 101644
06:00+2сз009169 0.4 101788
09:00+5с127566 0.9 1016635
12:00+5с127861 1.1 1015594
15:00+5ссв237626 1.8 1014714
18:00+3юз228717 0.3 101581
21:00+2юз348210 0.3 101592
20 октября, ср
ср2000:00+1юз338332 0.0 101463
03:00+2юз238238 0.4 1012115
06:000ссз2299100 3.5 1015180
09:00−1с339281 6.3 1017436
12:00−1с3294100 1.8 1017416
15:00−3с4497100 7.3 1020415
18:00−6сз229679 2.5 1027143
21:00−10юз329332 2.6 103121